User: anonymous   Login
Location: Dover
(39.1580°N, 75.5250°W)
Time: 07:10:07
(UTC-04:00)
Language:

Cosmos 1437 Rocket - Orbit

View from above orbital plane
View from above orbital plane
View from above satellite
View from above satellite

Ground track
Ground track

The orbit data is extracted from the following two-line orbital elements,

1 13771U 83003B   16179.19677813  .00001365  00000-0  82052-4 0  9995
2 13771  81.1532  52.1848 0043931 102.1010 258.5142 15.09374990820233
Epoch (UTC): 27 June 2016 04:43:21
Eccentricity: 0.0043931
inclination: 81.1532°
perigee height: 508 km
apogee height: 568 km
right ascension of ascending node: 52.1848°
argument of perigee: 102.1010°
revolutions per day: 15.09374990
mean anomaly at epoch: 258.5142°
orbit number at epoch: 82023

The dashed part of the orbit path shows where the satellite is in the earth's shadow,  

DLR